owner,sensor,date,latitude,longitude,air_pressure(mBar),qcFlag 
WAVCIS,ioos:station:WAVCIS:CSI03:1,2012-10-01T00:00:00Z,29.4412,-92.0613,994.473,11111222 
WAVCIS,ioos:station:WAVCIS:CSI03:1,2012-10-01T01:00:00Z,29.4412,-92.0613,994.94,11111222 
WAVCIS,ioos:station:WAVCIS:CSI03:1,2012-10-01T02:00:00Z,29.4412,-92.0613,995.68,11111222 
WAVCIS,ioos:station:WAVCIS:CSI03:1,2012-10-01T03:00:00Z,29.4412,-92.0613,996.6,11111222 
WAVCIS,ioos:station:WAVCIS:CSI03:1,2012-10-01T04:00:00Z,29.4412,-92.0613,996.781,11111222 
WAVCIS,ioos:station:WAVCIS:CSI03:1,2012-10-01T05:00:00Z,29.4412,-92.0613,996.806,11111222 
WAVCIS,ioos:station:WAVCIS:CSI03:1,2012-10-01T06:00:00Z,29.4412,-92.0613,997.171,11111222 
WAVCIS,ioos:station:WAVCIS:CSI03:1,2012-10-01T07:00:00Z,29.4412,-92.0613,997.148,11111222 
WAVCIS,ioos:station:WAVCIS:CSI03:1,2012-10-01T08:00:00Z,29.4412,-92.0613,997.476,11111222 
WAVCIS,ioos:station:WAVCIS:CSI03:1,2012-10-01T09:00:00Z,29.4412,-92.0613,997.448,11111222 
WAVCIS,ioos:station:WAVCIS:CSI03:1,2012-10-01T10:00:00Z,29.4412,-92.0613,997.682,11111222 
WAVCIS,ioos:station:WAVCIS:CSI03:1,2012-10-01T11:00:00Z,29.4412,-92.0613,998.115,11111222 
WAVCIS,ioos:station:WAVCIS:CSI03:1,2012-10-01T12:00:00Z,29.4412,-92.0613,998.635,11111222 
WAVCIS,ioos:station:WAVCIS:CSI03:1,2012-10-01T13:00:00Z,29.4412,-92.0613,999.283,11111222 
WAVCIS,ioos:station:WAVCIS:CSI03:1,2012-10-01T14:00:00Z,29.4412,-92.0613,999.725,11111222 
WAVCIS,ioos:station:WAVCIS:CSI03:1,2012-10-01T15:00:00Z,29.4412,-92.0613,1000.144,11111222 
WAVCIS,ioos:station:WAVCIS:CSI03:1,2012-10-01T16:00:00Z,29.4412,-92.0613,1000.514,11111222 
WAVCIS,ioos:station:WAVCIS:CSI03:1,2012-10-01T17:00:00Z,29.4412,-92.0613,1000.163,11111222 
WAVCIS,ioos:station:WAVCIS:CSI03:1,2012-10-01T18:00:00Z,29.4412,-92.0613,999.865,11111222 
WAVCIS,ioos:station:WAVCIS:CSI03:1,2012-10-01T19:00:00Z,29.4412,-92.0613,999.367,11111222 
WAVCIS,ioos:station:WAVCIS:CSI03:1,2012-10-01T20:00:00Z,29.4412,-92.0613,999.439,11111222 
WAVCIS,ioos:station:WAVCIS:CSI03:1,2012-10-01T21:00:00Z,29.4412,-92.0613,999.451,11111222 
WAVCIS,ioos:station:WAVCIS:CSI03:1,2012-10-01T22:00:00Z,29.4412,-92.0613,999.46,11111222 
WAVCIS,ioos:station:WAVCIS:CSI03:1,2012-10-01T23:00:00Z,29.4412,-92.0613,999.497,11111222 
WAVCIS,ioos:station:WAVCIS:CSI03:1,2012-10-02T00:00:00Z,29.4412,-92.0613,999.979,11111222 
WAVCIS,ioos:station:WAVCIS:CSI03:1,2012-10-02T01:00:00Z,29.4412,-92.0613,1000.831,11111222 
WAVCIS,ioos:station:WAVCIS:CSI03:1,2012-10-02T02:00:00Z,29.4412,-92.0613,1001.518,11111222 
WAVCIS,ioos:station:WAVCIS:CSI03:1,2012-10-02T03:00:00Z,29.4412,-92.0613,1002.433,11111222 
WAVCIS,ioos:station:WAVCIS:CSI03:1,2012-10-02T04:00:00Z,29.4412,-92.0613,1002.986,11111222 
WAVCIS,ioos:station:WAVCIS:CSI03:1,2012-10-02T05:00:00Z,29.4412,-92.0613,1003.18,11111222 
WAVCIS,ioos:station:WAVCIS:CSI03:1,2012-10-02T06:00:00Z,29.4412,-92.0613,1003.052,11111222 
WAVCIS,ioos:station:WAVCIS:CSI03:1,2012-10-02T07:00:00Z,29.4412,-92.0613,1003.46,11111222 
WAVCIS,ioos:station:WAVCIS:CSI03:1,2012-10-02T08:00:00Z,29.4412,-92.0613,1003.51,11111222 
WAVCIS,ioos:station:WAVCIS:CSI03:1,2012-10-02T09:00:00Z,29.4412,-92.0613,1003.29,11111222 
WAVCIS,ioos:station:WAVCIS:CSI03:1,2012-10-02T10:00:00Z,29.4412,-92.0613,1003.27,11111222 
WAVCIS,ioos:station:WAVCIS:CSI03:1,2012-10-02T11:00:00Z,29.4412,-92.0613,1003.62,11111222 
WAVCIS,ioos:station:WAVCIS:CSI03:1,2012-10-02T12:00:00Z,29.4412,-92.0613,1004.2,11111222 
WAVCIS,ioos:station:WAVCIS:CSI03:1,2012-10-02T13:00:00Z,29.4412,-92.0613,1005.0,11111222 
WAVCIS,ioos:station:WAVCIS:CSI03:1,2012-10-02T14:00:00Z,29.4412,-92.0613,1005.34,11111222 
WAVCIS,ioos:station:WAVCIS:CSI03:1,2012-10-02T15:00:00Z,29.4412,-92.0613,1006.11,11111222 
WAVCIS,ioos:station:WAVCIS:CSI03:1,2012-10-02T16:00:00Z,29.4412,-92.0613,1006.49,11111222 
WAVCIS,ioos:station:WAVCIS:CSI03:1,2012-10-02T17:00:00Z,29.4412,-92.0613,1006.27,11111222 
WAVCIS,ioos:station:WAVCIS:CSI03:1,2012-10-02T18:00:00Z,29.4412,-92.0613,1006.17,11111222 
WAVCIS,ioos:station:WAVCIS:CSI03:1,2012-10-02T19:00:00Z,29.4412,-92.0613,1005.7,11111222 
WAVCIS,ioos:station:WAVCIS:CSI03:1,2012-10-02T20:00:00Z,29.4412,-92.0613,1005.41,11111222 
WAVCIS,ioos:station:WAVCIS:CSI03:1,2012-10-02T21:00:00Z,29.4412,-92.0613,1005.4,11111222 
WAVCIS,ioos:station:WAVCIS:CSI03:1,2012-10-02T22:00:00Z,29.4412,-92.0613,1005.5,11111222 
WAVCIS,ioos:station:WAVCIS:CSI03:1,2012-10-02T23:00:00Z,29.4412,-92.0613,1005.4,11111222 
WAVCIS,ioos:station:WAVCIS:CSI03:1,2012-10-03T00:00:00Z,29.4412,-92.0613,1005.73,11111222 
WAVCIS,ioos:station:WAVCIS:CSI03:1,2012-10-03T01:00:00Z,29.4412,-92.0613,1006.38,11111222 
WAVCIS,ioos:station:WAVCIS:CSI03:1,2012-10-03T02:00:00Z,29.4412,-92.0613,1007.3,11111222 
WAVCIS,ioos:station:WAVCIS:CSI03:1,2012-10-03T03:00:00Z,29.4412,-92.0613,1007.69,11111222 
WAVCIS,ioos:station:WAVCIS:CSI03:1,2012-10-03T04:00:00Z,29.4412,-92.0613,1008.32,11111222 
WAVCIS,ioos:station:WAVCIS:CSI03:1,2012-10-03T05:00:00Z,29.4412,-92.0613,1008.33,11111222 
WAVCIS,ioos:station:WAVCIS:CSI03:1,2012-10-03T06:00:00Z,29.4412,-92.0613,1008.19,11111222 
WAVCIS,ioos:station:WAVCIS:CSI03:1,2012-10-03T07:00:00Z,29.4412,-92.0613,1008.1,11111222 
WAVCIS,ioos:station:WAVCIS:CSI03:1,2012-10-03T08:00:00Z,29.4412,-92.0613,1007.76,11111222 
WAVCIS,ioos:station:WAVCIS:CSI03:1,2012-10-03T09:00:00Z,29.4412,-92.0613,1007.77,11111222 
WAVCIS,ioos:station:WAVCIS:CSI03:1,2012-10-03T10:00:00Z,29.4412,-92.0613,1008.02,11111222 
WAVCIS,ioos:station:WAVCIS:CSI03:1,2012-10-03T11:00:00Z,29.4412,-92.0613,1008.66,11111222 
WAVCIS,ioos:station:WAVCIS:CSI03:1,2012-10-03T12:00:00Z,29.4412,-92.0613,1009.01,11111222 
WAVCIS,ioos:station:WAVCIS:CSI03:1,2012-10-03T13:00:00Z,29.4412,-92.0613,1009.61,11111222 
WAVCIS,ioos:station:WAVCIS:CSI03:1,2012-10-03T14:00:00Z,29.4412,-92.0613,1010.33,11111222 
WAVCIS,ioos:station:WAVCIS:CSI03:1,2012-10-03T15:00:00Z,29.4412,-92.0613,1010.85,11111222 
WAVCIS,ioos:station:WAVCIS:CSI03:1,2012-10-03T16:00:00Z,29.4412,-92.0613,1011.28,11111222 
WAVCIS,ioos:station:WAVCIS:CSI03:1,2012-10-03T17:00:00Z,29.4412,-92.0613,1011.46,11111222 
WAVCIS,ioos:station:WAVCIS:CSI03:1,2012-10-03T18:00:00Z,29.4412,-92.0613,1011.05,11111222 
WAVCIS,ioos:station:WAVCIS:CSI03:1,2012-10-03T19:00:00Z,29.4412,-92.0613,1010.53,11111222 
WAVCIS,ioos:station:WAVCIS:CSI03:1,2012-10-03T20:00:00Z,29.4412,-92.0613,1010.36,11111222 
WAVCIS,ioos:station:WAVCIS:CSI03:1,2012-10-03T21:00:00Z,29.4412,-92.0613,1010.38,11111222 
WAVCIS,ioos:station:WAVCIS:CSI03:1,2012-10-03T22:00:00Z,29.4412,-92.0613,1010.26,11111222 
WAVCIS,ioos:station:WAVCIS:CSI03:1,2012-10-03T23:00:00Z,29.4412,-92.0613,1010.52,11111222 
WAVCIS,ioos:station:WAVCIS:CSI03:1,2012-10-04T00:00:00Z,29.4412,-92.0613,1010.79,11111222 
WAVCIS,ioos:station:WAVCIS:CSI03:1,2012-10-04T01:00:00Z,29.4412,-92.0613,1011.11,11111222 
WAVCIS,ioos:station:WAVCIS:CSI03:1,2012-10-04T02:00:00Z,29.4412,-92.0613,1011.65,11111222 
WAVCIS,ioos:station:WAVCIS:CSI03:1,2012-10-04T03:00:00Z,29.4412,-92.0613,1012.18,11111222 
WAVCIS,ioos:station:WAVCIS:CSI03:1,2012-10-04T04:00:00Z,29.4412,-92.0613,1012.45,11111222 
WAVCIS,ioos:station:WAVCIS:CSI03:1,2012-10-04T05:00:00Z,29.4412,-92.0613,1012.45,11111222 
WAVCIS,ioos:station:WAVCIS:CSI03:1,2012-10-04T06:00:00Z,29.4412,-92.0613,1012.34,11111222 
WAVCIS,ioos:station:WAVCIS:CSI03:1,2012-10-04T07:00:00Z,29.4412,-92.0613,1012.55,11111222 
WAVCIS,ioos:station:WAVCIS:CSI03:1,2012-10-04T08:00:00Z,29.4412,-92.0613,1012.7,11111222 
WAVCIS,ioos:station:WAVCIS:CSI03:1,2012-10-04T09:00:00Z,29.4412,-92.0613,1012.82,11111222 
WAVCIS,ioos:station:WAVCIS:CSI03:1,2012-10-04T10:00:00Z,29.4412,-92.0613,1013.19,11111222 
WAVCIS,ioos:station:WAVCIS:CSI03:1,2012-10-04T11:00:00Z,29.4412,-92.0613,1013.73,11111222 
WAVCIS,ioos:station:WAVCIS:CSI03:1,2012-10-04T12:00:00Z,29.4412,-92.0613,1014.22,11111222 
WAVCIS,ioos:station:WAVCIS:CSI03:1,2012-10-04T13:00:00Z,29.4412,-92.0613,1014.8,11111222 
WAVCIS,ioos:station:WAVCIS:CSI03:1,2012-10-04T14:00:00Z,29.4412,-92.0613,1015.25,11111222 
WAVCIS,ioos:station:WAVCIS:CSI03:1,2012-10-04T15:00:00Z,29.4412,-92.0613,1015.58,11111222 
WAVCIS,ioos:station:WAVCIS:CSI03:1,2012-10-04T16:00:00Z,29.4412,-92.0613,1015.94,11111222 
WAVCIS,ioos:station:WAVCIS:CSI03:1,2012-10-04T17:00:00Z,29.4412,-92.0613,1016.05,11111222 
WAVCIS,ioos:station:WAVCIS:CSI03:1,2012-10-04T18:00:00Z,29.4412,-92.0613,1015.57,11111222 
WAVCIS,ioos:station:WAVCIS:CSI03:1,2012-10-04T19:00:00Z,29.4412,-92.0613,1014.89,11111222 
WAVCIS,ioos:station:WAVCIS:CSI03:1,2012-10-04T20:00:00Z,29.4412,-92.0613,1014.52,11111222 
WAVCIS,ioos:station:WAVCIS:CSI03:1,2012-10-04T21:00:00Z,29.4412,-92.0613,1014.35,11111222 
WAVCIS,ioos:station:WAVCIS:CSI03:1,2012-10-04T22:00:00Z,29.4412,-92.0613,1014.06,11111222 
WAVCIS,ioos:station:WAVCIS:CSI03:1,2012-10-04T23:00:00Z,29.4412,-92.0613,1013.92,11111222 
WAVCIS,ioos:station:WAVCIS:CSI03:1,2012-10-05T00:00:00Z,29.4412,-92.0613,1014.25,11111222 
WAVCIS,ioos:station:WAVCIS:CSI03:1,2012-10-05T01:00:00Z,29.4412,-92.0613,1014.23,11111222 
WAVCIS,ioos:station:WAVCIS:CSI03:1,2012-10-05T02:00:00Z,29.4412,-92.0613,1014.31,11111222 
WAVCIS,ioos:station:WAVCIS:CSI03:1,2012-10-05T03:00:00Z,29.4412,-92.0613,1014.16,11111222 
WAVCIS,ioos:station:WAVCIS:CSI03:1,2012-10-05T04:00:00Z,29.4412,-92.0613,1014.4,11111222 
WAVCIS,ioos:station:WAVCIS:CSI03:1,2012-10-05T05:00:00Z,29.4412,-92.0613,1014.12,11111222 
WAVCIS,ioos:station:WAVCIS:CSI03:1,2012-10-05T06:00:00Z,29.4412,-92.0613,1013.77,11111222 
WAVCIS,ioos:station:WAVCIS:CSI03:1,2012-10-05T07:00:00Z,29.4412,-92.0613,1013.59,11111222 
WAVCIS,ioos:station:WAVCIS:CSI03:1,2012-10-05T08:00:00Z,29.4412,-92.0613,1013.34,11111222 
WAVCIS,ioos:station:WAVCIS:CSI03:1,2012-10-05T09:00:00Z,29.4412,-92.0613,1013.03,11111222 
WAVCIS,ioos:station:WAVCIS:CSI03:1,2012-10-05T10:00:00Z,29.4412,-92.0613,1013.03,11111222 
WAVCIS,ioos:station:WAVCIS:CSI03:1,2012-10-05T11:00:00Z,29.4412,-92.0613,1013.52,11111222 
WAVCIS,ioos:station:WAVCIS:CSI03:1,2012-10-05T12:00:00Z,29.4412,-92.0613,1013.49,11111222 
WAVCIS,ioos:station:WAVCIS:CSI03:1,2012-10-05T13:00:00Z,29.4412,-92.0613,1013.56,11111222 
WAVCIS,ioos:station:WAVCIS:CSI03:1,2012-10-05T14:00:00Z,29.4412,-92.0613,1014.1,11111222 
WAVCIS,ioos:station:WAVCIS:CSI03:1,2012-10-05T15:00:00Z,29.4412,-92.0613,1014.44,11111222 
WAVCIS,ioos:station:WAVCIS:CSI03:1,2012-10-05T16:00:00Z,29.4412,-92.0613,1014.21,11111222 
WAVCIS,ioos:station:WAVCIS:CSI03:1,2012-10-05T17:00:00Z,29.4412,-92.0613,1014.01,11111222 
WAVCIS,ioos:station:WAVCIS:CSI03:1,2012-10-05T18:00:00Z,29.4412,-92.0613,1013.09,11111222 
WAVCIS,ioos:station:WAVCIS:CSI03:1,2012-10-05T19:00:00Z,29.4412,-92.0613,1012.12,11111222 
WAVCIS,ioos:station:WAVCIS:CSI03:1,2012-10-05T20:00:00Z,29.4412,-92.0613,1011.25,11111222 
WAVCIS,ioos:station:WAVCIS:CSI03:1,2012-10-05T21:00:00Z,29.4412,-92.0613,1010.79,11111222 
WAVCIS,ioos:station:WAVCIS:CSI03:1,2012-10-05T22:00:00Z,29.4412,-92.0613,1010.37,11111222 
WAVCIS,ioos:station:WAVCIS:CSI03:1,2012-10-05T23:00:00Z,29.4412,-92.0613,1010.18,11111222 
WAVCIS,ioos:station:WAVCIS:CSI03:1,2012-10-06T00:00:00Z,29.4412,-92.0613,1010.0,11111222 
WAVCIS,ioos:station:WAVCIS:CSI03:1,2012-10-06T01:00:00Z,29.4412,-92.0613,1010.13,11111222 
WAVCIS,ioos:station:WAVCIS:CSI03:1,2012-10-06T02:00:00Z,29.4412,-92.0613,1010.26,11111222 
WAVCIS,ioos:station:WAVCIS:CSI03:1,2012-10-06T03:00:00Z,29.4412,-92.0613,1010.24,11111222 
WAVCIS,ioos:station:WAVCIS:CSI03:1,2012-10-06T04:00:00Z,29.4412,-92.0613,1010.0,11111222 
WAVCIS,ioos:station:WAVCIS:CSI03:1,2012-10-06T05:00:00Z,29.4412,-92.0613,1009.86,11111222 
WAVCIS,ioos:station:WAVCIS:CSI03:1,2012-10-06T06:00:00Z,29.4412,-92.0613,1010.09,11111222 
WAVCIS,ioos:station:WAVCIS:CSI03:1,2012-10-06T07:00:00Z,29.4412,-92.0613,1010.39,11111222 
WAVCIS,ioos:station:WAVCIS:CSI03:1,2012-10-06T08:00:00Z,29.4412,-92.0613,1009.98,11111222 
WAVCIS,ioos:station:WAVCIS:CSI03:1,2012-10-06T09:00:00Z,29.4412,-92.0613,1009.49,11111222 
WAVCIS,ioos:station:WAVCIS:CSI03:1,2012-10-06T10:00:00Z,29.4412,-92.0613,1009.62,11111222 
WAVCIS,ioos:station:WAVCIS:CSI03:1,2012-10-06T11:00:00Z,29.4412,-92.0613,1010.04,11111222 
WAVCIS,ioos:station:WAVCIS:CSI03:1,2012-10-06T12:00:00Z,29.4412,-92.0613,1010.28,11111222 
WAVCIS,ioos:station:WAVCIS:CSI03:1,2012-10-06T13:00:00Z,29.4412,-92.0613,1010.36,11111222 
WAVCIS,ioos:station:WAVCIS:CSI03:1,2012-10-06T14:00:00Z,29.4412,-92.0613,1010.71,11111222 
WAVCIS,ioos:station:WAVCIS:CSI03:1,2012-10-06T15:00:00Z,29.4412,-92.0613,1010.93,11111222 
WAVCIS,ioos:station:WAVCIS:CSI03:1,2012-10-06T16:00:00Z,29.4412,-92.0613,1010.92,11111222 
WAVCIS,ioos:station:WAVCIS:CSI03:1,2012-10-06T17:00:00Z,29.4412,-92.0613,1010.77,11111222 
WAVCIS,ioos:station:WAVCIS:CSI03:1,2012-10-06T18:00:00Z,29.4412,-92.0613,1010.14,11111222 
WAVCIS,ioos:station:WAVCIS:CSI03:1,2012-10-06T19:00:00Z,29.4412,-92.0613,1009.21,11111222 
WAVCIS,ioos:station:WAVCIS:CSI03:1,2012-10-06T20:00:00Z,29.4412,-92.0613,1008.45,11111222 
WAVCIS,ioos:station:WAVCIS:CSI03:1,2012-10-06T21:00:00Z,29.4412,-92.0613,1008.22,11111222 
WAVCIS,ioos:station:WAVCIS:CSI03:1,2012-10-06T22:00:00Z,29.4412,-92.0613,1007.87,11111222 
WAVCIS,ioos:station:WAVCIS:CSI03:1,2012-10-06T23:00:00Z,29.4412,-92.0613,1007.91,11111222 
WAVCIS,ioos:station:WAVCIS:CSI03:1,2012-10-07T00:00:00Z,29.4412,-92.0613,1008.38,11111222 
WAVCIS,ioos:station:WAVCIS:CSI03:1,2012-10-07T01:00:00Z,29.4412,-92.0613,1008.65,11111222 
WAVCIS,ioos:station:WAVCIS:CSI03:1,2012-10-07T02:00:00Z,29.4412,-92.0613,1009.13,11111222 
WAVCIS,ioos:station:WAVCIS:CSI03:1,2012-10-07T03:00:00Z,29.4412,-92.0613,1009.43,11111222 
WAVCIS,ioos:station:WAVCIS:CSI03:1,2012-10-07T04:00:00Z,29.4412,-92.0613,1009.97,11111222 
WAVCIS,ioos:station:WAVCIS:CSI03:1,2012-10-07T05:00:00Z,29.4412,-92.0613,1010.14,11111222 
WAVCIS,ioos:station:WAVCIS:CSI03:1,2012-10-07T06:00:00Z,29.4412,-92.0613,1010.62,11111222 
WAVCIS,ioos:station:WAVCIS:CSI03:1,2012-10-07T07:00:00Z,29.4412,-92.0613,1010.65,11111222 
WAVCIS,ioos:station:WAVCIS:CSI03:1,2012-10-07T08:00:00Z,29.4412,-92.0613,1010.83,11111222 
WAVCIS,ioos:station:WAVCIS:CSI03:1,2012-10-07T09:00:00Z,29.4412,-92.0613,1011.01,11111222 
WAVCIS,ioos:station:WAVCIS:CSI03:1,2012-10-07T10:00:00Z,29.4412,-92.0613,1011.28,11111222 
WAVCIS,ioos:station:WAVCIS:CSI03:1,2012-10-07T11:00:00Z,29.4412,-92.0613,1011.57,11111222 
WAVCIS,ioos:station:WAVCIS:CSI03:1,2012-10-07T12:00:00Z,29.4412,-92.0613,1012.13,11111222 
WAVCIS,ioos:station:WAVCIS:CSI03:1,2012-10-07T13:00:00Z,29.4412,-92.0613,1012.64,11111222 
WAVCIS,ioos:station:WAVCIS:CSI03:1,2012-10-07T14:00:00Z,29.4412,-92.0613,1013.27,11111222 
WAVCIS,ioos:station:WAVCIS:CSI03:1,2012-10-07T15:00:00Z,29.4412,-92.0613,1013.29,11111222 
WAVCIS,ioos:station:WAVCIS:CSI03:1,2012-10-07T16:00:00Z,29.4412,-92.0613,1013.29,11111222 
WAVCIS,ioos:station:WAVCIS:CSI03:1,2012-10-07T17:00:00Z,29.4412,-92.0613,1013.32,11111222 
WAVCIS,ioos:station:WAVCIS:CSI03:1,2012-10-07T18:00:00Z,29.4412,-92.0613,1012.75,11111222 
WAVCIS,ioos:station:WAVCIS:CSI03:1,2012-10-07T19:00:00Z,29.4412,-92.0613,1011.61,11111222 
WAVCIS,ioos:station:WAVCIS:CSI03:1,2012-10-07T20:00:00Z,29.4412,-92.0613,1010.83,11111222 
WAVCIS,ioos:station:WAVCIS:CSI03:1,2012-10-07T21:00:00Z,29.4412,-92.0613,1010.32,11111222 
WAVCIS,ioos:station:WAVCIS:CSI03:1,2012-10-07T22:00:00Z,29.4412,-92.0613,1010.08,11111222 
WAVCIS,ioos:station:WAVCIS:CSI03:1,2012-10-07T23:00:00Z,29.4412,-92.0613,1010.49,11111222 
WAVCIS,ioos:station:WAVCIS:CSI03:1,2012-10-08T00:00:00Z,29.4412,-92.0613,1011.01,11111222 
WAVCIS,ioos:station:WAVCIS:CSI03:1,2012-10-08T01:00:00Z,29.4412,-92.0613,1012.09,11111222 
WAVCIS,ioos:station:WAVCIS:CSI03:1,2012-10-08T02:00:00Z,29.4412,-92.0613,1012.87,11111222 
WAVCIS,ioos:station:WAVCIS:CSI03:1,2012-10-08T03:00:00Z,29.4412,-92.0613,1013.29,11111222 
WAVCIS,ioos:station:WAVCIS:CSI03:1,2012-10-08T04:00:00Z,29.4412,-92.0613,1013.37,11111222 
WAVCIS,ioos:station:WAVCIS:CSI03:1,2012-10-08T05:00:00Z,29.4412,-92.0613,1013.18,11111222 
WAVCIS,ioos:station:WAVCIS:CSI03:1,2012-10-08T06:00:00Z,29.4412,-92.0613,1013.35,11111222 
WAVCIS,ioos:station:WAVCIS:CSI03:1,2012-10-08T07:00:00Z,29.4412,-92.0613,1013.27,11111222 
WAVCIS,ioos:station:WAVCIS:CSI03:1,2012-10-08T08:00:00Z,29.4412,-92.0613,1012.89,11111222 
WAVCIS,ioos:station:WAVCIS:CSI03:1,2012-10-08T09:00:00Z,29.4412,-92.0613,1012.82,11111222 
WAVCIS,ioos:station:WAVCIS:CSI03:1,2012-10-08T10:00:00Z,29.4412,-92.0613,1012.72,11111222 
WAVCIS,ioos:station:WAVCIS:CSI03:1,2012-10-08T11:00:00Z,29.4412,-92.0613,1012.95,11111222 
WAVCIS,ioos:station:WAVCIS:CSI03:1,2012-10-08T12:00:00Z,29.4412,-92.0613,1013.65,11111222 
WAVCIS,ioos:station:WAVCIS:CSI03:1,2012-10-08T13:00:00Z,29.4412,-92.0613,1014.32,11111222 
WAVCIS,ioos:station:WAVCIS:CSI03:1,2012-10-08T14:00:00Z,29.4412,-92.0613,1014.9,11111222 
WAVCIS,ioos:station:WAVCIS:CSI03:1,2012-10-08T15:00:00Z,29.4412,-92.0613,1015.52,11111222 
WAVCIS,ioos:station:WAVCIS:CSI03:1,2012-10-08T16:00:00Z,29.4412,-92.0613,1015.26,11111222 
WAVCIS,ioos:station:WAVCIS:CSI03:1,2012-10-08T17:00:00Z,29.4412,-92.0613,1015.04,11111222 
WAVCIS,ioos:station:WAVCIS:CSI03:1,2012-10-08T18:00:00Z,29.4412,-92.0613,1014.35,11111222 
WAVCIS,ioos:station:WAVCIS:CSI03:1,2012-10-08T19:00:00Z,29.4412,-92.0613,1013.6,11111222 
WAVCIS,ioos:station:WAVCIS:CSI03:1,2012-10-08T20:00:00Z,29.4412,-92.0613,1012.76,11111222 
WAVCIS,ioos:station:WAVCIS:CSI03:1,2012-10-08T21:00:00Z,29.4412,-92.0613,1012.37,11111222 
WAVCIS,ioos:station:WAVCIS:CSI03:1,2012-10-08T22:00:00Z,29.4412,-92.0613,1012.35,11111222 
WAVCIS,ioos:station:WAVCIS:CSI03:1,2012-10-08T23:00:00Z,29.4412,-92.0613,1012.34,11111222 
WAVCIS,ioos:station:WAVCIS:CSI03:1,2012-10-09T00:00:00Z,29.4412,-92.0613,1012.37,11111222 
WAVCIS,ioos:station:WAVCIS:CSI03:1,2012-10-09T01:00:00Z,29.4412,-92.0613,1012.65,11111222 
WAVCIS,ioos:station:WAVCIS:CSI03:1,2012-10-09T02:00:00Z,29.4412,-92.0613,1013.04,11111222 
WAVCIS,ioos:station:WAVCIS:CSI03:1,2012-10-09T03:00:00Z,29.4412,-92.0613,1013.53,11111222 
WAVCIS,ioos:station:WAVCIS:CSI03:1,2012-10-09T04:00:00Z,29.4412,-92.0613,1013.73,11111222 
WAVCIS,ioos:station:WAVCIS:CSI03:1,2012-10-09T05:00:00Z,29.4412,-92.0613,1013.45,11111222 
WAVCIS,ioos:station:WAVCIS:CSI03:1,2012-10-09T06:00:00Z,29.4412,-92.0613,1013.02,11111222 
WAVCIS,ioos:station:WAVCIS:CSI03:1,2012-10-09T07:00:00Z,29.4412,-92.0613,1012.85,11111222 
WAVCIS,ioos:station:WAVCIS:CSI03:1,2012-10-09T08:00:00Z,29.4412,-92.0613,1012.68,11111222 
WAVCIS,ioos:station:WAVCIS:CSI03:1,2012-10-09T09:00:00Z,29.4412,-92.0613,1012.43,11111222 
WAVCIS,ioos:station:WAVCIS:CSI03:1,2012-10-09T10:00:00Z,29.4412,-92.0613,1012.82,11111222 
WAVCIS,ioos:station:WAVCIS:CSI03:1,2012-10-09T11:00:00Z,29.4412,-92.0613,1013.15,11111222 
WAVCIS,ioos:station:WAVCIS:CSI03:1,2012-10-09T12:00:00Z,29.4412,-92.0613,1013.31,11111222 
WAVCIS,ioos:station:WAVCIS:CSI03:1,2012-10-09T13:00:00Z,29.4412,-92.0613,1013.47,11111222 
WAVCIS,ioos:station:WAVCIS:CSI03:1,2012-10-09T14:00:00Z,29.4412,-92.0613,1014.11,11111222 
WAVCIS,ioos:station:WAVCIS:CSI03:1,2012-10-09T15:00:00Z,29.4412,-92.0613,1014.37,11111222 
WAVCIS,ioos:station:WAVCIS:CSI03:1,2012-10-09T16:00:00Z,29.4412,-92.0613,1014.33,11111222 
WAVCIS,ioos:station:WAVCIS:CSI03:1,2012-10-09T17:00:00Z,29.4412,-92.0613,1013.75,11111222 
WAVCIS,ioos:station:WAVCIS:CSI03:1,2012-10-09T18:00:00Z,29.4412,-92.0613,1012.86,11111222 
WAVCIS,ioos:station:WAVCIS:CSI03:1,2012-10-09T19:00:00Z,29.4412,-92.0613,1011.98,11111222 
WAVCIS,ioos:station:WAVCIS:CSI03:1,2012-10-09T20:00:00Z,29.4412,-92.0613,1011.19,11111222 
WAVCIS,ioos:station:WAVCIS:CSI03:1,2012-10-09T21:00:00Z,29.4412,-92.0613,1010.49,11111222 
WAVCIS,ioos:station:WAVCIS:CSI03:1,2012-10-09T22:00:00Z,29.4412,-92.0613,1010.4,11111222 
WAVCIS,ioos:station:WAVCIS:CSI03:1,2012-10-09T23:00:00Z,29.4412,-92.0613,1010.03,11111222 
WAVCIS,ioos:station:WAVCIS:CSI03:1,2012-10-10T00:00:00Z,29.4412,-92.0613,1010.26,11111222 
WAVCIS,ioos:station:WAVCIS:CSI03:1,2012-10-10T01:00:00Z,29.4412,-92.0613,1010.45,11111222 
WAVCIS,ioos:station:WAVCIS:CSI03:1,2012-10-10T02:00:00Z,29.4412,-92.0613,1010.73,11111222 
WAVCIS,ioos:station:WAVCIS:CSI03:1,2012-10-10T03:00:00Z,29.4412,-92.0613,1011.23,11111222 
WAVCIS,ioos:station:WAVCIS:CSI03:1,2012-10-10T04:00:00Z,29.4412,-92.0613,1011.18,11111222 
WAVCIS,ioos:station:WAVCIS:CSI03:1,2012-10-10T05:00:00Z,29.4412,-92.0613,1011.03,11111222 
WAVCIS,ioos:station:WAVCIS:CSI03:1,2012-10-10T06:00:00Z,29.4412,-92.0613,1011.0,11111222 
WAVCIS,ioos:station:WAVCIS:CSI03:1,2012-10-10T07:00:00Z,29.4412,-92.0613,1011.29,11111222 
WAVCIS,ioos:station:WAVCIS:CSI03:1,2012-10-10T08:00:00Z,29.4412,-92.0613,1011.32,11111222 
WAVCIS,ioos:station:WAVCIS:CSI03:1,2012-10-10T09:00:00Z,29.4412,-92.0613,1011.95,11111222 
WAVCIS,ioos:station:WAVCIS:CSI03:1,2012-10-10T10:00:00Z,29.4412,-92.0613,1012.31,11111222 
WAVCIS,ioos:station:WAVCIS:CSI03:1,2012-10-10T11:00:00Z,29.4412,-92.0613,1012.71,11111222 
WAVCIS,ioos:station:WAVCIS:CSI03:1,2012-10-10T12:00:00Z,29.4412,-92.0613,1013.29,11111222 
WAVCIS,ioos:station:WAVCIS:CSI03:1,2012-10-10T13:00:00Z,29.4412,-92.0613,1013.76,11111222 
WAVCIS,ioos:station:WAVCIS:CSI03:1,2012-10-10T14:00:00Z,29.4412,-92.0613,1013.96,11111222 
WAVCIS,ioos:station:WAVCIS:CSI03:1,2012-10-10T15:00:00Z,29.4412,-92.0613,1014.42,11111222 
WAVCIS,ioos:station:WAVCIS:CSI03:1,2012-10-10T16:00:00Z,29.4412,-92.0613,1014.8,11111222 
WAVCIS,ioos:station:WAVCIS:CSI03:1,2012-10-10T17:00:00Z,29.4412,-92.0613,1014.85,11111222 
WAVCIS,ioos:station:WAVCIS:CSI03:1,2012-10-10T18:00:00Z,29.4412,-92.0613,1014.23,11111222 
WAVCIS,ioos:station:WAVCIS:CSI03:1,2012-10-10T19:00:00Z,29.4412,-92.0613,1013.06,11111222 
WAVCIS,ioos:station:WAVCIS:CSI03:1,2012-10-10T20:00:00Z,29.4412,-92.0613,1012.26,11111222 
WAVCIS,ioos:station:WAVCIS:CSI03:1,2012-10-10T21:00:00Z,29.4412,-92.0613,1011.94,11111222 
WAVCIS,ioos:station:WAVCIS:CSI03:1,2012-10-10T22:00:00Z,29.4412,-92.0613,1011.99,11111222 
WAVCIS,ioos:station:WAVCIS:CSI03:1,2012-10-10T23:00:00Z,29.4412,-92.0613,1012.39,11111222 
WAVCIS,ioos:station:WAVCIS:CSI03:1,2012-10-11T00:00:00Z,29.4412,-92.0613,1012.89,11111222 
WAVCIS,ioos:station:WAVCIS:CSI03:1,2012-10-11T01:00:00Z,29.4412,-92.0613,1013.27,11111222 
WAVCIS,ioos:station:WAVCIS:CSI03:1,2012-10-11T02:00:00Z,29.4412,-92.0613,1013.45,11111222 
WAVCIS,ioos:station:WAVCIS:CSI03:1,2012-10-11T03:00:00Z,29.4412,-92.0613,1013.91,11111222 
WAVCIS,ioos:station:WAVCIS:CSI03:1,2012-10-11T04:00:00Z,29.4412,-92.0613,1014.33,11111222 
WAVCIS,ioos:station:WAVCIS:CSI03:1,2012-10-11T05:00:00Z,29.4412,-92.0613,1014.23,11111222 
WAVCIS,ioos:station:WAVCIS:CSI03:1,2012-10-11T06:00:00Z,29.4412,-92.0613,1013.89,11111222 
WAVCIS,ioos:station:WAVCIS:CSI03:1,2012-10-11T07:00:00Z,29.4412,-92.0613,1013.99,11111222 
WAVCIS,ioos:station:WAVCIS:CSI03:1,2012-10-11T08:00:00Z,29.4412,-92.0613,1013.96,11111222 
WAVCIS,ioos:station:WAVCIS:CSI03:1,2012-10-11T09:00:00Z,29.4412,-92.0613,1013.87,11111222 
WAVCIS,ioos:station:WAVCIS:CSI03:1,2012-10-11T10:00:00Z,29.4412,-92.0613,1013.61,11111222 
WAVCIS,ioos:station:WAVCIS:CSI03:1,2012-10-11T11:00:00Z,29.4412,-92.0613,1014.11,11111222 
WAVCIS,ioos:station:WAVCIS:CSI03:1,2012-10-11T12:00:00Z,29.4412,-92.0613,1014.72,11111222 
WAVCIS,ioos:station:WAVCIS:CSI03:1,2012-10-11T13:00:00Z,29.4412,-92.0613,1015.13,11111222 
WAVCIS,ioos:station:WAVCIS:CSI03:1,2012-10-11T14:00:00Z,29.4412,-92.0613,1015.76,11111222 
WAVCIS,ioos:station:WAVCIS:CSI03:1,2012-10-11T15:00:00Z,29.4412,-92.0613,1016.61,11111222 
WAVCIS,ioos:station:WAVCIS:CSI03:1,2012-10-11T16:00:00Z,29.4412,-92.0613,1016.54,11111222 
WAVCIS,ioos:station:WAVCIS:CSI03:1,2012-10-11T17:00:00Z,29.4412,-92.0613,1016.53,11111222 
WAVCIS,ioos:station:WAVCIS:CSI03:1,2012-10-11T18:00:00Z,29.4412,-92.0613,1016.01,11111222 
WAVCIS,ioos:station:WAVCIS:CSI03:1,2012-10-11T19:00:00Z,29.4412,-92.0613,1015.29,11111222 
WAVCIS,ioos:station:WAVCIS:CSI03:1,2012-10-11T20:00:00Z,29.4412,-92.0613,1014.77,11111222 
WAVCIS,ioos:station:WAVCIS:CSI03:1,2012-10-11T21:00:00Z,29.4412,-92.0613,1014.57,11111222 
WAVCIS,ioos:station:WAVCIS:CSI03:1,2012-10-11T22:00:00Z,29.4412,-92.0613,1014.31,11111222 